Location: Willingham
(52.3167°N, 0.0667°E)
Time: 16:27:41
(UTC+00:00)

Exosat Rocket - Pass Details

Date: 19 May 2025
Orbit: 761 x 2512 km, 72.3° (Epoch: 12 June)

Event Time Altitude Azimuth Distance (km) Brightness Sun altitude
Rises 23:08:12 0° 331° (NNW) 3,411 8.3 -16.9°
Reaches altitude 10° 23:10:42 10° 332° (NNW) 2,380 7.2 -17.0°
Maximum altitude 23:15:50 86° 60° (ENE) 771 3.5 -17.2°
Enters shadow 23:18:34 28° 150° (SSE) 1,428 4.4 -17.2°
